◎2000 LK = 2007 FD1    [From JSGA Web News No. 115]



JSGA Web News No. 115                                             2007 Aug. 15



アポロ型特異小惑星  2000 LK = 2007 FD1

  近日点の極めて小さい小惑星(近日点距離q= 0.20 AU)の同定(2007 MK6 =

2006 KT67; cf. JSGA Web News No. 113)を見つけた東京流星ネットワークの大塚

勝仁氏(K. Ohtsuka, Tokyo)は,LONEOSサーベイで2000年6月1日に発見された

17等級のアポロ型小惑星2000 LKとスペースウォッチ・サーベイで2007年3月16日

に発見された20等級のアポロ型小惑星 2007 FD1との同定を見つけた.この小惑星

は,2007 MK6より近日点距離は,さらに小さくq=0.12 AUであった.なお,qの

小さい小惑星(q<0.14 AU)のリストが天文年鑑2007(p.237)にある.次の連結

軌道は,2000年と2007年の2回の衝で行なわれた71個の観測から計算されたもの.



       2000 LK = 2007 FD1

               。

       Mo=  93.6741                Epoch = 2007 Oct. 27.0 TT

       ω = 193.8812                   e =   0.945852          H = 18.4

       Ω = 200.1318    (2000.0)       a =   2.179236 AU       G =  0.15

       i =  17.0225                   n゚=   0.3063710

       q =   0.118002 AU              P =   3.22 年



軌道と残差:

 

2000 LK = 2007 FD1

Id. K. Ohtsuka

Epoch 2007 Oct. 27.0 TT = JDT 2454400.5                 MPC      

M  93.67457              (2000.0)            P               Q

n   0.30637235     Peri.  193.88119     +0.83252808     -0.54474281

a   2.1792297      Node   200.13182     +0.53210523     +0.83692095

e   0.9458516      Incl.   17.02256     +0.15414609     +0.05309038

P   3.22           H   18.4           G   0.15           U   2

Residuals in seconds of arc 

000601 699  0.3+  0.3-    000602 540  0.1+  0.4+    070318 691  0.2-  0.3-  

000601 699  0.4-  1.0+    000602 540  0.3+  0.3+    070329 693 (0.1-  2.9-) 

000601 699  0.2+  0.1-    000603 611  0.6+  0.4-    070329 693 (0.0   3.1-) 

000601 699  0.0   0.1+    000603 611  0.8-  0.0     070329 693 (0.1-  3.0-) 

000602 118  0.3+  0.3-    000603 611  1.0+  1.3-    070406 J95  1.5+  0.2-  

000602 118  1.1+  0.2-    000603 118  0.6-  0.1+    070407 J95  0.6+  0.0   

000602 118  1.4+  0.2+    000603 118  0.4-  0.1+    070407 J95  0.6+  1.1+  

000602 118  0.4+  0.4+    000603 118  0.8-  0.1-    070411 291  0.4-  0.1+  

000602 557  0.6-  0.4+    000605 118  0.7-  1.1+    070411 291  0.1-  0.1+  

000602 557  1.0-  0.3-    000605 118  0.3-  0.8+    070411 291  0.3-  0.2-  

000602 557  0.5-  0.7-    000605 118  0.9-  0.3+    070411 246 (0.2-  2.0+) 

000602 557  0.4+  1.1-    000607 360  0.1+  0.0     070411 246  0.4-  1.6+  

000602 046  1.1-  0.1+    000607 360  0.2-  0.0     070411 246  0.1+  1.0+  

000602 046  1.0+  0.2+    000607 360  0.0   0.6-    070411 246  0.1-  0.5+  

000602 046  1.1-  0.6+    000607 540  0.7+  0.0     070411 246  0.1+  0.2-  

000602 046  0.6+  0.0     000607 540  1.1+  0.3-    070414 291 (0.9-  2.7+) 

000602 046  1.4+  0.2-    000607 540  0.3+  0.1+    070414 291  1.0-  0.7+  

000602 046  0.2+  0.7-    070316 691  0.2-  0.7-    070414 291  0.1+  0.8+  

000602 118  0.1+  0.1+    070316 691  0.3-  0.2-    070418 291  0.5+  0.4-  

000602 118  0.4-  0.2-    070316 691  0.5-  0.7-    070418 291  1.4+  1.4-  

000602 118  1.0-  0.4+    070317 291  0.6-  0.4+    070418 291  0.4-  0.1-  

000602 587  0.6-  0.9-    070317 291  0.1+  0.2-    070419 G96  0.1+  0.0   

000602 587  0.7-  0.2-    070317 291  0.1+  0.1-    070419 G96  0.1+  0.5-  

000602 587  0.1+  1.0+    070318 691  0.1+  0.5-    070419 G96  0.4-  0.2-  

000602 540  0.3+  0.3+    070318 691  0.1-  0.1-    070419 G96  0.2-  0.0   

 

RunOff=  13".8

 

日本スペースガード協会            (c) Copyright JSGA 2007           中野 主一

         **** Don't distribute anyone except personal use only ****

                (C) Copyright 2007 OAA/ComputingSection

write mail from CFAD0::NAKANO on 2007-08-16 06:38:58(JST).

 

 2000 LK   

Epoch 2000 June 5.0 TT = JDT 2451700.5                  Nakano

M 350.21988              (2000.0)            P               Q

n   0.27970210     Peri.  192.67011     +0.82989994     -0.54659601

a   2.3156464      Node   201.63056     +0.53468397     +0.83643472

e   0.9493881      Incl.   17.65525     +0.15930832     +0.04012192

P   3.52           H   18.2           G   0.15           U   *

  

NAKANO

         **** Don't distribute anyone except personal use only ****

                (C) Copyright 2000 OAA/ComputingSection

write mail from CFAD0::NAKANO on 2000-06-09 04:15:22(JST).

 





戻ります。